Miscellaneous Local Product
Issued by NWS Hastings, NE

Home | Current Version | Previous Version | Graphics & Text | Print | Product List | Glossary On
Versions: 1 2 3 4 5 6 7 8 9 10 11 12 13 14 15 16 17 18 19 20 21 22 23 24 25 26 27 28 29 30 31 32 33 34 35 36 37 38 39 40 41 42 43 44 45 46 47 48 49 50
000
AXUS43 KGID 301302
MISGRI

GID CWA HOURLY WEATHER ROUNDUP
NATIONAL WEATHER SERVICE HASTINGS NE
800 AM CDT TUE JUN 30 2015

NOTE: "FAIR" INDICATES FEW OR NO CLOUDS BELOW 12,000 FEET WITH NO
SIGNIFICANT WEATHER AND/OR OBSTRUCTIONS TO VISIBILITY.

...SOUTH CENTRAL NEBRASKA...

CITY           SKY/WX    TMP DP  RH WIND       PRES   REMARKS
GRAND ISLAND   SUNNY     73  62  68 SW6       29.97F
HASTINGS       SUNNY     72  61  68 SW5       29.98S
KEARNEY        SUNNY     70  63  78 S5        29.99S
ORD            MOSUNNY   66  61  84 CALM      29.96R HAZE
YORK           SUNNY     66  63  88 SW3       29.97S
AURORA         SUNNY     69  64  82 W7        29.97S
LEXINGTON        N/A     69  64  83 CALM      30.00R HAZE
HOLDREGE       SUNNY     69  58  68 S3        30.00S
HEBRON         SUNNY     66  62  85 CALM      29.97S

...NEBRASKA PANHANDLE...

CITY           SKY/WX    TMP DP  RH WIND       PRES   REMARKS
CHADRON        MOSUNNY   65  60  84 CALM      30.01S
ALLIANCE       SUNNY     62  58  86 SW3       30.05R
SCOTTSBLUFF    MOSUNNY   64  56  75 NW6       30.07S
SIDNEY         SUNNY     65  57  75 W8        30.10S

...WESTERN AND NORTH CENTRAL NEBRASKA...

CITY           SKY/WX    TMP DP  RH WIND       PRES   REMARKS
VALENTINE      MOSUNNY   67  62  84 W5        29.95F
AINSWORTH      PTSUNNY   72  61  68 E5        29.98R
ONEILL         CLOUDY    69  65  86 E6        29.99S
BROKEN BOW     PTSUNNY   72  64  76 CALM      30.00S
IMPERIAL       MOSUNNY   66  59  78 CALM      30.05R
NORTH PLATTE   CLOUDY    65  60  84 CALM      30.01S
MCCOOK         MOSUNNY   66  58  75 W6        30.01R

...EASTERN NEBRASKA...

CITY           SKY/WX    TMP DP  RH WIND       PRES   REMARKS
NORFOLK        CLOUDY    70  65  84 CALM      29.97S HAZE
SO SIOUX CITY  LGT RAIN  68  63  84 CALM      29.95F
TEKAMAH        CLOUDY    70  64  81 CALM      29.96R HAZE
COLUMBUS       PTSUNNY   68  63  83 NE3       29.98R
ALBION         MOSUNNY   65  60  83 N5        29.98R HAZE
OMAHA EPPLEY   CLOUDY    70  64  81 N6        29.95R
MILLARD        PTSUNNY   70  65  84 CALM      29.95R
LINCOLN        MOSUNNY   71  63  75 CALM      29.95S HAZE
NEBRASKA CITY  MOSUNNY   71  60  70 W3        29.95S
BEATRICE       SUNNY     69  64  83 W3        29.96F
FALLS CITY     MOSUNNY   68  64  87 W3        29.94R

...NORTHERN KANSAS...

CITY           SKY/WX    TMP DP  RH WIND       PRES   REMARKS
GOODLAND       SUNNY     69  54  58 W5        30.07S
HILL CITY      SUNNY     70  56  61 W6        30.01S
NORTON         SUNNY     70  54  56 SW6       30.00S
PHILLIPSBURG   SUNNY     75  59  57 S5        30.00S HAZE
SMITH CENTER   SUNNY     73  59  60 CALM      30.00R
HAYS           MOSUNNY   72  55  56 CALM      30.01R
RUSSELL        SUNNY     73  59  61 S3        29.99S
CONCORDIA      SUNNY     71  63  75 CALM      29.98R HAZE
SALINA         SUNNY     72  61  68 SE3       29.97S
TOPEKA         SUNNY     69  65  86 CALM      29.95S



USA.gov is the U.S. government's official web portal to all federal, state and local government web resources and services.